Regional Weather Roundup
Issued by NWS

Home | Current Version | Previous Version | Text Only | Print | Product List | Glossary On
Versions: 1 2 3 4 5 6 7 8 9 10 11 12 13 14 15 16 17 18 19 20 21 22 23 24 25 26 27 28 29 30 31 32 33 34 35 36 37 38 39 40 41 42 43 44 45 46 47 48 49 50
000
ASUS43 KLMK 270602
RWRKY
KENTUCKY REGIONAL WEATHER ROUNDUP
NATIONAL WEATHER SERVICE LOUISVILLE KY
200 AM EDT WED MAY 27 2015

NOTE "FAIR" INDICATES FEW OR NO CLOUDS BELOW 12,000 FEET
WITH NO SIGNIFICANT WEATHER AND/OR OBSTRUCTIONS TO VISIBILITY.

KYZ001>023-026-027-061>063-070>075-270700-
WESTERN AND SOUTH CENTRAL KENTUCKY

CITY           SKY/WX    TMP DP  RH WIND       PRES   REMARKS
PADUCAH        CLEAR     66  61  84 S3        30.04F
HENDERSON      CLEAR     64  59  82 SW5       30.04F
OWENSBORO      PTCLDY    65  62  90 S6        30.06F
HOPKINSVILLE   CLEAR     68  65  92 S6        30.07F
BOWLING GREEN  PTCLDY    69  65  86 S5        30.10S
GLASGOW        NOT AVBL
$$

KYZ024-025-028>034-038-045-046-053-270700-
NORTH CENTRAL KENTUCKY

CITY           SKY/WX    TMP DP  RH WIND       PRES   REMARKS
LOUISVILLE/SDF MOCLDY    71  67  87 S8        30.07S
LOUISVILLE/LOU PTCLDY    68  66  93 S3        30.07S
FORT KNOX      CLOUDY    67  66  98 S6        30.07R
$$

KYZ035>037-039>044-047>052-055>060-089>105-270700-
NORTHEAST KENTUCKY

CITY           SKY/WX    TMP DP  RH WIND       PRES   REMARKS
LEXINGTON      MOCLDY    67  66  97 S9        30.10S
COVINGTON      CLOUDY    67  65  93 S10       30.07R
FRANKFORT      CLOUDY    68  65  90 SW7       30.08S
$$

KYZ054-064>069-076>088-106>120-270700-
SOUTHEAST KENTUCKY

CITY           SKY/WX    TMP DP  RH WIND       PRES   REMARKS
JACKSON        MOCLDY    67  64  90 VRB3      30.14S
LONDON         MOCLDY    68  63  84 S6        30.15S
SOMERSET       NOT AVBL
MIDDLESBORO    NOT AVBL
MONTICELLO     MOCLDY    70  69  96 S5        30.16F
$$




USA.gov is the U.S. government's official web portal to all federal, state and local government web resources and services.